Location: Nairn
(57.5833°N, 3.8667°W)
Time: 16:29:21
(UTC+00:00)

S-56A Canister/Altair - Pass Details

Date: 04 December 2020
Orbit: 633 x 2499 km, 38.9° (Epoch: 19 January)

Event Time Altitude Azimuth Distance (km) Brightness Sun altitude
Rises 20:37:14 0° 249° (WSW) 5,636 12.5 -38.7°
Reaches altitude 10° 20:42:09 10° 238° (WSW) 4,330 11.7 -39.3°
Enters shadow 20:48:44 23° 204° (SSW) 2,951 10.4 -40.1°
Maximum altitude 20:50:13 24° 192° (SSW) 2,797 - -40.3°
Drops below altitude 10° 20:56:22 10° 143° (SE) 3,201 - -41.1°
Sets 20:59:22 0° 129° (SE) 3,900 - -41.4°
